Location: Los Ranchitos
(37.9930°N, 122.5425°W)
Time: 08:09:03
(UTC+00:00)

Cosmos 1867 - Pass Details

Date: 21 September 2020
Orbit: 777 x 799 km, 65.0° (Epoch: 28 October)

Event Time Altitude Azimuth Distance (km) Brightness Sun altitude
Rises 03:30:51 0° 328° (NNW) 3,309 7.5 -16.8°
Reaches altitude 10° 03:33:17 10° 328° (NNW) 2,376 6.7 -17.2°
Maximum altitude 03:38:46 84° 242° (WSW) 806 3.6 -18.3°
Enters shadow 03:42:28 21° 155° (SSE) 1,712 4.9 -19.0°
